User: anonymous   Login
Location: ??????
(41.3164°N, 22.6615°E)
Time: 22:41:07
(UTC+00:00)
Language:

Cosmos 2082 - Orbit

View from above orbital plane
View from above orbital plane
View from above satellite
View from above satellite

Ground track
Ground track

The orbit data is extracted from the following two-line orbital elements,

1 20624U 90046A   22026.43602113 -.00000295  00000-0 -12930-3 0  9991
2 20624  71.0404 288.9395 0016100 329.6871  30.3319 14.14372883635048
Epoch (UTC): 26 January 2022 10:27:52
Eccentricity: 0.0016100
inclination: 71.0404°
perigee height: 833 km
apogee height: 856 km
right ascension of ascending node: 288.9395°
argument of perigee: 329.6871°
revolutions per day: 14.14372883
mean anomaly at epoch: 30.3319°
orbit number at epoch: 63504

The dashed part of the orbit path shows where the satellite is in the earth's shadow,  

DLR